TimeCST,TemperatureF,Dew PointF,Humidity,Sea Level PressureIn,VisibilityMPH,Wind Direction,Wind SpeedMPH,Gust SpeedMPH,PrecipitationIn,Events,Conditions,WindDirDegrees,DateUTC
12:56 AM,45.0,29.1,54,30.16,-9999.0,SW,15.0,21.9,N/A,,Clear,220,2013-01-20 06:56:00
1:56 AM,43.9,30.0,58,30.17,-9999.0,SW,10.4,-,N/A,,Clear,230,2013-01-20 07:56:00
2:56 AM,43.0,30.0,60,30.17,-9999.0,SW,10.4,-,N/A,,Clear,220,2013-01-20 08:56:00
3:56 AM,41.0,30.0,65,30.17,-9999.0,SW,8.1,-,N/A,,Clear,220,2013-01-20 09:56:00
4:56 AM,39.9,30.0,68,30.18,-9999.0,SW,8.1,-,N/A,,Clear,230,2013-01-20 10:56:00
5:56 AM,38.8,31.1,74,30.20,-9999.0,WSW,6.9,-,N/A,,Clear,240,2013-01-20 11:56:00
6:56 AM,37.9,31.1,76,30.22,-9999.0,WSW,5.8,-,N/A,,Clear,240,2013-01-20 12:56:00
7:56 AM,41.9,32.0,68,30.24,-9999.0,West,5.8,-,N/A,,Clear,270,2013-01-20 13:56:00
8:56 AM,43.9,34.0,68,30.25,-9999.0,WNW,8.1,-,N/A,,Clear,290,2013-01-20 14:56:00
9:56 AM,45.9,28.0,50,30.27,-9999.0,WNW,8.1,-,N/A,,Clear,300,2013-01-20 15:56:00
10:56 AM,47.8,26.1,43,30.26,-9999.0,NW,10.4,-,N/A,,Clear,310,2013-01-20 16:56:00
11:56 AM,47.8,24.1,39,30.22,-9999.0,WNW,10.4,-,N/A,,Clear,300,2013-01-20 17:56:00
12:56 PM,50.0,25.2,38,30.21,-9999.0,WNW,6.9,-,N/A,,Clear,300,2013-01-20 18:56:00
1:56 PM,50.0,22.1,33,30.20,-9999.0,NNW,8.1,-,N/A,,Clear,330,2013-01-20 19:56:00
2:56 PM,48.9,16.2,27,30.20,-9999.0,North,8.1,-,N/A,,Clear,360,2013-01-20 20:56:00
3:56 PM,46.9,16.2,29,30.20,-9999.0,North,8.1,-,N/A,,Clear,360,2013-01-20 21:56:00
4:56 PM,38.8,17.1,41,30.21,-9999.0,Calm,Calm,-,N/A,,Clear,0,2013-01-20 22:56:00
5:56 PM,30.0,21.0,69,30.23,-9999.0,Calm,Calm,-,N/A,,Clear,0,2013-01-20 23:56:00
6:56 PM,27.1,20.1,75,30.23,-9999.0,Calm,Calm,-,N/A,,Clear,0,2013-01-21 00:56:00
7:56 PM,29.1,19.0,66,30.24,-9999.0,Calm,Calm,-,N/A,,Clear,0,2013-01-21 01:56:00
8:56 PM,24.1,19.0,81,30.23,-9999.0,Calm,Calm,-,N/A,,Clear,0,2013-01-21 02:56:00
9:56 PM,23.0,19.0,85,30.23,-9999.0,Calm,Calm,-,N/A,,Clear,0,2013-01-21 03:56:00
10:56 PM,19.0,17.1,92,30.22,-9999.0,Calm,Calm,-,N/A,,Clear,0,2013-01-21 04:56:00
11:56 PM,20.1,17.1,88,30.21,-9999.0,Calm,Calm,-,N/A,,Clear,0,2013-01-21 05:56:00